TimeEST,TemperatureF,Dew PointF,Humidity,Sea Level PressureIn,VisibilityMPH,Wind Direction,Wind SpeedMPH,Gust SpeedMPH,PrecipitationIn,Events,Conditions,WindDirDegrees,DateUTC
12:53 AM,34.0,26.1,73,30.17,10.0,Calm,Calm,-,N/A,,Overcast,0,2013-01-06 05:53:00
1:53 AM,37.0,26.1,65,30.15,10.0,SSW,3.5,-,N/A,,Overcast,210,2013-01-06 06:53:00
2:53 AM,37.0,27.0,67,30.14,10.0,SSW,4.6,-,N/A,,Overcast,210,2013-01-06 07:53:00
3:53 AM,37.0,28.0,70,30.12,10.0,SW,5.8,-,N/A,,Overcast,220,2013-01-06 08:53:00
4:53 AM,37.0,28.0,70,30.10,10.0,SW,5.8,-,N/A,,Overcast,220,2013-01-06 09:53:00
5:53 AM,37.0,28.0,70,30.09,10.0,SW,5.8,-,N/A,,Overcast,220,2013-01-06 10:53:00
6:53 AM,37.9,28.0,68,30.09,10.0,SW,8.1,-,N/A,,Overcast,230,2013-01-06 11:53:00
7:53 AM,37.0,28.9,73,30.10,10.0,SSW,5.8,-,N/A,,Overcast,200,2013-01-06 12:53:00
8:53 AM,37.9,28.9,70,30.10,10.0,SSW,4.6,-,N/A,,Overcast,210,2013-01-06 13:53:00
9:53 AM,39.0,30.0,70,30.10,10.0,SW,5.8,-,N/A,,Overcast,220,2013-01-06 14:53:00
10:53 AM,39.0,30.0,70,30.10,10.0,SW,9.2,17.3,N/A,,Overcast,230,2013-01-06 15:53:00
11:37 AM,39.2,30.2,70,30.07,10.0,SW,8.1,-,N/A,,Overcast,230,2013-01-06 16:37:00
11:53 AM,39.0,30.9,73,30.08,10.0,SW,9.2,16.1,N/A,,Overcast,230,2013-01-06 16:53:00
12:53 PM,37.9,30.9,76,30.06,10.0,WSW,8.1,-,N/A,,Overcast,250,2013-01-06 17:53:00
1:11 PM,37.4,30.2,75,30.04,10.0,WSW,8.1,-,N/A,,Overcast,240,2013-01-06 18:11:00
1:43 PM,37.4,30.2,75,30.05,9.0,WSW,10.4,16.1,N/A,,Overcast,250,2013-01-06 18:43:00
1:53 PM,37.0,30.9,79,30.08,6.0,WNW,15.0,25.3,0.00,Rain,Light Rain,290,2013-01-06 18:53:00
2:11 PM,33.8,26.6,75,30.08,7.0,WNW,16.1,28.8,0.00,,Overcast,290,2013-01-06 19:11:00
2:53 PM,33.1,26.1,75,30.13,9.0,West,10.4,17.3,0.00,,Overcast,270,2013-01-06 19:53:00
3:53 PM,32.0,23.0,69,30.18,9.0,West,15.0,21.9,N/A,,Overcast,280,2013-01-06 20:53:00
4:53 PM,32.0,24.1,73,30.22,7.0,WNW,11.5,-,N/A,,Overcast,290,2013-01-06 21:53:00
5:53 PM,30.9,23.0,72,30.25,7.0,WNW,16.1,26.5,N/A,,Overcast,290,2013-01-06 22:53:00
6:45 PM,28.4,21.2,74,30.26,7.0,West,6.9,-,N/A,,Overcast,280,2013-01-06 23:45:00
6:53 PM,28.9,21.0,72,30.28,7.0,West,9.2,-,N/A,,Overcast,280,2013-01-06 23:53:00
7:30 PM,28.4,21.2,74,30.29,7.0,West,9.2,-,N/A,,Overcast,280,2013-01-07 00:30:00
7:53 PM,28.9,21.0,72,30.32,7.0,WNW,8.1,-,N/A,,Overcast,290,2013-01-07 00:53:00
8:53 PM,28.9,21.0,72,30.35,6.0,WNW,9.2,-,N/A,,Haze,290,2013-01-07 01:53:00
9:46 PM,28.4,21.2,74,30.33,6.0,West,8.1,-,N/A,,Haze,280,2013-01-07 02:46:00
9:53 PM,28.9,21.0,72,30.35,6.0,West,6.9,-,N/A,,Haze,280,2013-01-07 02:53:00
10:53 PM,28.9,21.9,75,30.38,7.0,WNW,8.1,-,N/A,,Overcast,290,2013-01-07 03:53:00
11:53 PM,28.9,21.9,75,30.39,7.0,West,5.8,-,N/A,,Overcast,280,2013-01-07 04:53:00